Location: ????????
(41.2031°N, 22.5756°E)
Time: 04:33:21
(UTC+00:00)

NOAA 11 - Pass Details

Date: 01 December 2020
Orbit: 834 x 849 km, 98.4° (Epoch: 20 January)

Event Time Altitude Azimuth Distance (km) Brightness Sun altitude
Rises 15:58:23 0° 156° (SSE) 3,367 7.3 -10.6°
Reaches altitude 10° 16:00:45 10° 154° (SSE) 2,438 6.5 -11.0°
Maximum altitude 16:06:05 65° 73° (ENE) 917 4.1 -11.9°
Drops below altitude 10° 16:11:29 10° 353° (N) 2,461 6.5 -12.9°
Sets 16:13:52 0° 350° (N) 3,402 7.3 -13.3°
